User: anonymous   Login
Location: Libas
(9.8833°N, 125.9833°E)
Time: 10:40:56
(UTC+00:00)
Language:

Envisat - Orbit

View from above orbital plane
View from above orbital plane
View from above satellite
View from above satellite

Ground track
Ground track

The orbit data is extracted from the following two-line orbital elements,

1 27386U 02009A   21058.86966638  .00000032  00000-0  24057-4 0  9992
2 27386  98.1449  58.5468 0001259  93.2896  27.9385 14.38014336995250
Epoch (UTC): 27 February 2021 20:52:19
Eccentricity: 0.0001259
inclination: 98.1449°
perigee height: 764 km
apogee height: 766 km
right ascension of ascending node: 58.5468°
argument of perigee: 93.2896°
revolutions per day: 14.38014336
mean anomaly at epoch: 27.9385°
orbit number at epoch: 99525

The dashed part of the orbit path shows where the satellite is in the earth's shadow,  

DLR